Content
SEND FEEDBACK

Daily
Averages
Monthly
Summary
Mexico

CANCUN, QUINTANA ROO


Home > North America > Mexico > Quintana Roo
Elevation: 9 meters     Latitude: 21 09N     Longitude: 086 49W

WEATHER
 
SELECT A DAY
Number of Records: 163,700;   Date Range: 1/1/95 - 7/27/14
 
SHARE

PRINT THIS DATA

[ ← Previous Day ]
WEATHER ALMANAC - 19 MARCH, 2013
[ Next Day → ]
[ °F ]   °C
Weather ElementAverageHighLow
Temperature26.4 °C29 °C (10:47 am)24 °C (4:44 am)
Dewpoint22.3 °C23 °C (1:44 am)22 °C (3:45 am)
Humidity78.3 %89 % (2:46 am)66 % (10:47 am)
Barometer1013.5 hPa1015.2 hPa (8:48 am)1011.2 hPa (2:46 am)
Wind Speed20.3 km/h33.3 km/h (11:46 am)
Weather ElementAverage
Visibility11.3 km
Wind DirectionESE (127.9 °)

Weather ElementTotal
Precipitation---
Cooling Degree Days8.2 (Base 18.3)
Growing Degree Days16.5 (Base 10)
Averaged from 24 records on 19 March, 2013
WEATHER CONDITIONS BREAKOUT
WIND DIRECTION BREAKOUT
WEATHER BY HOUR - 19 MARCH, 2013
[ °F ]   °C
Local TimeTemperatureDewpointHumidityBarometerVisibilityWind DirectionWind SpeedGust SpeedPrecipitationEventsConditions
1:44 AM26 °C23 °C83 %1011.9 hPa11.3 kmSE (140°)16.7 km/hMostly Cloudy
2:46 AM25 °C23 °C89 %1011.2 hPa11.3 kmSE (140°)11.1 km/hMostly Cloudy
3:45 AM25 °C22 °C83 %1011.9 hPa11.3 kmSE (140°)18.5 km/hMostly Cloudy
4:44 AM24 °C22 °C89 %1012.5 hPa11.3 kmSE (130°)11.1 km/hMostly Cloudy
5:43 AM24 °C22 °C89 %1011.9 hPa11.3 kmESE (110°)9.3 km/hMostly Cloudy
6:42 AM25 °C23 °C89 %1013.9 hPa11.3 kmEast (100°)9.3 km/hScattered Clouds
7:49 AM27 °C22 °C74 %1014.6 hPa11.3 kmSSE (150°)16.7 km/hScattered Clouds
8:48 AM28 °C22 °C70 %1015.2 hPa11.3 kmESE (120°)18.5 km/hScattered Clouds
9:43 AM28 °C22 °C70 %1015.2 hPa11.3 kmSSE (160°)18.5 km/hScattered Clouds
10:47 AM29 °C22 °C66 %1015.2 hPa11.3 kmSE (140°)24.1 km/hScattered Clouds
11:46 AM29 °C22 °C66 %1015.2 hPa11.3 kmSE (140°)33.3 km/hMostly Cloudy
12:45 PM29 °C22 °C66 %1013.9 hPa11.3 kmSE (140°)27.8 km/hMostly Cloudy
1:45 PM28 °C23 °C74 %1013.2 hPa11.3 kmESE (110°)24.1 km/hMostly Cloudy
2:44 PM28 °C22 °C70 %1013.2 hPa11.3 kmESE (120°)22.2 km/hMostly Cloudy
3:45 PM27 °C22 °C74 %1012.9 hPa11.3 kmSE (140°)27.8 km/hMostly Cloudy
4:44 PM27 °C23 °C79 %1012.9 hPa11.3 kmESE (120°)22.2 km/hMostly Cloudy
5:45 PM26 °C22 °C78 %1013.5 hPa11.3 kmESE (120°)16.7 km/hScattered Clouds
6:43 PM26 °C22 °C78 %1013.2 hPa11.3 kmESE (120°)20.4 km/hScattered Clouds
7:40 PM26 °C22 °C78 %1013.5 hPa11.3 kmESE (120°)16.7 km/hScattered Clouds
8:42 PM26 °C23 °C83 %1014.2 hPa11.3 kmESE (110°)22.2 km/hMostly Cloudy
8:51 PM26 °C23 °C83 %1014.2 hPa11.3 kmESE (110°)22.2 km/hMostly Cloudy
9:45 PM25 °C22 °C83 %1013.2 hPa11.3 kmSE (130°)24.1 km/hScattered Clouds
10:46 PM25 °C22 °C83 %1013.2 hPa11.3 kmSE (130°)29.6 km/hScattered Clouds
11:46 PM25 °C22 °C83 %1012.9 hPa11.3 kmSE (130°)22.2 km/hScattered Clouds
Hourly data recorded from MMUN, located 0 kilometers away from Cancun, Quintana Roo







STORIES FROM OUR PARTNERS